Location: Arcueil
(48.7999°N, 2.3326°E)
Time: 06:36:51
(UTC+00:00)

Cosmos 841 Rocket - Visible Passes

Search period start: 24 September 2023 00:00
Search period end: 04 October 2023 00:00
Orbit: 746 x 770 km, 74.0° (Epoch: 23 September)

Date Brightness Start Highest point End Pass type
(mag) Time Alt. Az. Time Alt. Az. Time Alt. Az.
24 Sep 5.7 22:03:47 10° NNW 22:05:34 20° N 22:05:34 20° N visible
25 Sep 5.5 21:24:01 10° N 21:26:06 20° NNE 21:26:06 20° NNE visible
25 Sep 6.2 23:05:32 10° NNW 23:06:08 13° NNW 23:06:08 13° NNW visible
26 Sep 5.6 20:44:29 10° N 20:46:39 16° NNE 20:46:39 16° NNE visible
26 Sep 5.9 22:25:22 10° NNW 22:26:41 18° NNW 22:26:41 18° NNW visible
27 Sep 5.7 20:05:26 10° NNE 20:07:13 12° NE 20:07:13 12° NE visible
27 Sep 5.6 21:45:23 10° NNW 21:47:15 22° N 21:47:15 22° N visible
28 Sep 5.3 21:05:32 10° N 21:07:50 23° N 21:07:50 23° N visible
28 Sep 6.3 22:47:21 10° NW 22:47:52 13° NW 22:47:52 13° NW visible
29 Sep 5.3 20:25:51 10° N 20:28:26 20° NNE 20:28:26 20° NNE visible
29 Sep 5.9 22:07:05 10° NNW 22:08:28 19° NNW 22:08:28 19° NNW visible
30 Sep 5.5 19:46:28 10° N 19:49:02 15° NE 19:49:02 15° NE visible
30 Sep 5.4 21:27:00 10° NNW 21:29:05 25° NNW 21:29:05 25° NNW visible
01 Oct 5.0 20:47:04 10° NNW 20:49:43 27° N 20:49:43 27° N visible
01 Oct 6.3 22:29:14 10° NW 22:29:45 12° NW 22:29:45 12° NW visible
02 Oct 5.0 20:07:17 10° N 20:10:22 24° NNE 20:10:22 24° NNE visible
02 Oct 5.8 21:48:50 10° NNW 21:50:25 20° NW 21:50:25 20° NW visible
03 Oct 5.1 19:27:43 10° N 19:31:02 18° NE 19:31:02 18° NE visible
03 Oct 5.2 21:08:39 10° NNW 21:11:05 28° NNW 21:11:05 28° NNW visible
